カタリナ彗星

C/2005 N4 ( Catalina )

English version
Home page
Updated on September 25, 2005

---------------------------------------------------------------------

・ プロフィール

発見日 2005年7月6日
発見光度 19.1等
発見者 Catalina Sky Survey

・ 軌道要素

T 2005 July 2.6025 TT                                   MPC
q   2.303839             (2000.0)            P               Q
z  +0.016919       Peri.  136.5456      -0.0406522      -0.5936660
                   Node    64.0351      -0.9671899      -0.1785017
e   0.961020       Incl.  116.6308      +0.2507810      -0.7846642
>From 193 observations 2005 July 6-Aug. 25.

・ 光度変化

        m1 = 14.2 + 5 logΔ + 10.0 log r

---------------------------------------------------------------------

軌道要素はM.P.E.C. 2005-Q38に掲載されたものです。
光度グラフはComet for Windowsで作成したものです。

---------------------------------------------------------------------

Copyright(C) Seiichi Yoshida (comet@aerith.net). All rights reserved.